This is the latest recevied weather packets stored in our database for station/object p43g-13. If no packets are shown the sender has not sent any weather packets the latest 10 day(s).
| Time | Temp. | Humidity | Pressure | Rain* | Wind** | Luminosity | Snow |
|---|---|---|---|---|---|---|---|
| 1788013855 | 31.11° C | 76% | 1012.7 hPa | 0 mm | - | 189 W/m² | - |
| 1788013555 | 31.11° C | 75% | 1012.6 hPa | 0 mm | - | 440 W/m² | - |
| 1788013256 | 31.11° C | 76% | 1012.2 hPa | 0 mm | - | 319 W/m² | - |
| 1788012955 | 31.11° C | 76% | 1012.7 hPa | 0 mm | - | 481 W/m² | - |
| 1788012655 | 30.56° C | 77% | 1012.4 hPa | 0 mm | - | 466 W/m² | - |
| 1788012355 | 30.56° C | 77% | 1012.3 hPa | 0 mm | - | 627 W/m² | - |
| 1788012055 | 31.11° C | 77% | 1012.2 hPa | 0 mm | - | 893 W/m² | - |
| 1788011756 | 31.11° C | 77% | 1012 hPa | 0 mm | - | 305 W/m² | - |
| 1788011455 | 31.11° C | 76% | 1012.2 hPa | 0 mm | - | 236 W/m² | - |
| 1788011156 | 31.11° C | 76% | 1012 hPa | 0 mm | - | 713 W/m² | - |
| 1788010855 | 31.11° C | 78% | 1012.2 hPa | 0 mm | - | 424 W/m² | - |
| 1788010555 | 30.56° C | 79% | 1012.1 hPa | 0 mm | - | 669 W/m² | - |
| 1788010255 | 30.56° C | 79% | 1012.1 hPa | 0 mm | - | 452 W/m² | - |
| 1788009955 | 30° C | 78% | 1012 hPa | 0 mm | - | 499 W/m² | - |
| 1788009655 | 30.56° C | 78% | 1012 hPa | 0 mm | - | 406 W/m² | - |
| 1788009355 | 30.56° C | 79% | 1011.9 hPa | 0 mm | - | 512 W/m² | - |
| 1788009054 | 30° C | 80% | 1011.9 hPa | 0 mm | - | 449 W/m² | - |
| 1788008755 | 30° C | 79% | 1011.7 hPa | 0 mm | - | 175 W/m² | - |
| 1788008455 | 30° C | 80% | 1012 hPa | 0 mm | - | 173 W/m² | - |
| 1788008155 | 30.56° C | 79% | 1011.8 hPa | 0 mm | - | 155 W/m² | - |
| 1788007855 | 30.56° C | 79% | 1011.5 hPa | 0 mm | - | 443 W/m² | - |
| 1788007556 | 30° C | 79% | 1011.7 hPa | 0 mm | - | 358 W/m² | - |
| 1788007256 | 30° C | 79% | 1011.7 hPa | 0 mm | - | 333 W/m² | - |
| 1788006955 | 30° C | 79% | 1011.6 hPa | 0 mm | - | 310 W/m² | - |
| 1788006655 | 29.44° C | 79% | 1011.5 hPa | 0 mm | - | 330 W/m² | - |
* Rain latest hour (hover to see other rain measurements)
** Current wind speed in m/s (hover to see current wind gust speed)